Terug naar catalogus

UFO 5

USA 111

ActiefCommunicatieGEO
NORAD 23589·PAYLOAD·🇺🇸 United States

Gelanceerd May 31, 1995 vanaf Cape Canaveral Space Force Station

Loading…

TLE

VersSource: Space-Track

Epoch: Sep 14, 2026, 09:43 UTC

1 23589U 95027A   26257.40528969  .00000019  00000-0  00000-0 0  9995
2 23589  12.0739   9.7828 0001476 298.4621  68.3813  0.98749979113887

Volg UFO 5 in realtime met AllMySat

Download on the App Store